Powrót do katalogu

ZHIHUI TIANWANG-1 01B

AktywnyŁącznośćHEO
NORAD 59706·PAYLOAD·🇨🇳 China

Wystrzelony May 9, 2024 z Xichang Satellite Launch Center

Loading…

Następne Przeloty (najbliższe 24 godziny)

TLE

ŚwieżeSource: Space-Track

Epoka: Sep 13, 2026, 21:06 UTC

1 59706U 24087B   26256.87957206  .00000006  00000-0  00000-0 0  9999
2 59706  53.1270 166.9266 0027269 202.2408 157.6808  2.00561177 16738

Śledź ZHIHUI TIANWANG-1 01B w czasie rzeczywistym z AllMySat

Download on the App Store